User: anonymous   Login
Location: Norwich
(52.6280°N, 1.3030°E)
Time: 16:24:54
(UTC+01:00)
Language:

APEX - Orbit

View from above orbital plane
View from above orbital plane
View from above satellite
View from above satellite

Ground track
Ground track

The orbit data is extracted from the following two-line orbital elements,

1 23191U 94046A   14294.48298508  .00026033  00000-0  10522-2 0   350
2 23191 069.9181 266.4734 0725641 131.3007 004.0803 14.07881391978274
Epoch (UTC): 21 October 2014 11:35:29
Eccentricity: 0.0725641
inclination: 69.9181°
perigee height: 341 km
apogee height: 1392 km
right ascension of ascending node: 266.4734°
argument of perigee: 131.3007°
revolutions per day: 14.07881391
mean anomaly at epoch: 4.0803°
orbit number at epoch: 97827

The dashed part of the orbit path shows where the satellite is in the earth's shadow,  

DLR